Location: Unspecified
(38.0989°N, 0.6729°W)
Time: 11:45:47
(UTC+01:00)

ISS - Visible Passes

Search period start: 22 November 2017 00:00
Search period end: 02 December 2017 00:00
Orbit: 402 x 407 km, 51.6° (Epoch: 22 November)

Date Brightness Start Highest point End Pass type
(mag) Time Alt. Az. Time Alt. Az. Time Alt. Az.
24 Nov -0.8 20:04:23 10° SSW 20:04:38 12° SSW 20:04:38 12° SSW visible
25 Nov -2.3 19:12:39 10° S 19:14:55 23° SE 19:14:55 23° SE visible
26 Nov -1.5 18:21:50 10° SSE 18:23:14 12° SE 18:24:39 10° ESE visible
26 Nov -1.7 19:56:05 10° WSW 19:57:47 27° WSW 19:57:47 27° WSW visible
27 Nov -3.8 19:03:45 10° SW 19:07:00 66° SE 19:07:52 43° ENE visible
28 Nov -2.7 18:11:48 10° SSW 18:14:44 31° SE 18:17:41 10° ENE visible
28 Nov -1.8 19:48:20 10° W 19:50:31 25° NW 19:50:31 25° NW visible
29 Nov -3.1 18:55:32 10° WSW 18:58:44 47° NW 19:00:26 23° NNE visible
30 Nov -1.3 19:41:04 10° WNW 19:42:55 16° NNW 19:42:55 16° NNW visible
01 Dec -2.0 18:47:51 10° W 18:50:33 23° NNW 18:52:42 13° NNE visible
